Wind_Speed
14 14 14 14 14 14 14 14 14 15 15 14 14 15 14 15 14 13 13 13 14 14 14 14 14 13 14 14 15 15 15 15 15 14 14 14 14 15 16 15 15 15 15
14 14 14 14 14 14 14 14 15 15 16 16 15 15 15 15 15 14 14 14 14 14 13 13 13 13 14 14 15 14 14 14 14 13 13 13 13 14 14 15 15 15 15
14 14 14 14 14 14 14 15 15 16 16 16 15 15 15 15 15 15 15 15 15 14 13 13 14 14 15 15 15 15 15 14 14 14 14 15 14 14 14 15 15 16 16
15 15 15 15 15 15 15 15 16 16 17 16 16 15 15 15 16 15 16 16 15 15 15 14 15 15 15 16 16 16 15 15 15 15 15 15 14 14 15 16 17 17 17
16 16 16 16 16 15 15 16 15 15 15 15 16 16 16 16 17 16 16 16 16 16 16 15 15 15 15 16 16 16 16 16 16 15 15 15 14 15 16 17 17 18 19
17 17 16 16 16 16 16 16 16 16 16 16 16 16 16 16 16 16 17 17 17 16 16 16 16 16 16 16 16 16 16 16 15 15 15 15 15 16 16 17 17 18 18
17 17 17 17 17 17 17 16 16 16 16 16 16 16 16 16 16 16 16 16 16 16 16 16 16 17 17 17 17 17 16 16 16 17 16 16 16 16 17 17 17 18 18
17 16 17 17 18 17 17 16 16 17 17 17 16 15 16 16 16 16 16 16 16 16 15 16 16 16 16 16 16 16 16 16 16 16 17 17 17 17 17 18 18 18 19
17 17 17 18 18 18 17 16 16 16 16 16 16 16 17 16 16 16 16 16 16 16 17 17 16 16 16 16 16 17 16 16 16 17 17 17 17 17 18 18 18 18 19
17 17 18 18 19 18 18 17 17 17 17 16 17 16 16 17 16 16 16 16 16 17 17 17 17 17 17 17 17 16 16 16 17 17 18 18 18 18 19 19 19 20 21
17 17 18 18 19 19 18 18 18 17 17 17 17 16 16 16 16 16 16 16 17 17 18 17 17 17 17 17 17 17 17 17 17 18 19 19 19 20 20 20 21 21 22
18 18 18 19 19 20 20 19 19 18 18 17 17 17 17 17 18 18 18 18 18 18 18 18 18 17 18 18 18 18 18 18 19 19 19 19 20 20 21 21 22 22 23
19 20 20 20 20 20 20 21 20 20 20 19 19 19 19 19 19 19 19 19 20 19 19 19 19 19 19 19 20 19 19 19 20 20 21 21 21 21 22 22 23 24 24
21 21 21 21 22 21 21 22 22 21 21 21 21 20 20 20 20 21 20 20 21 21 21 20 19 20 20 20 21 21 20 20 21 21 21 22 23 23 23 23 24 25 26
22 22 22 22 23 23 23 22 22 23 23 22 22 22 22 21 21 22 22 22 22 22 22 21 21 21 21 21 21 21 22 22 22 22 23 23 23 24 25 25 26 27 27
23 23 23 23 23 24 24 24 24 24 24 24 23 24 23 23 23 23 23 24 24 24 24 23 23 23 22 23 23 23 23 23 23 23 24 24 24 25 26 26 27 28 28
25 25 24 24 24 24 24 24 24 24 25 25 25 25 25 25 25 25 25 25 25 25 25 24 24 24 24 25 25 25 24 24 24 24 25 25 25 25 26 27 28 28 29
26 26 26 25 25 24 24 24 24 24 25 25 26 25 25 26 26 26 26 26 26 25 25 25 25 25 26 26 26 26 25 25 25 26 26 26 25 25 26 27 28 29 29
27 27 27 27 26 26 26 26 26 26 26 26 26 26 26 27 27 27 27 27 27 27 27 26 26 26 26 26 27 26 26 26 26 26 26 26 26 26 27 28 29 29 29
27 28 29 28 28 27 27 27 27 27 27 28 28 28 28 28 28 28 28 28 28 28 28 28 28 27 27 27 27 27 27 27 27 27 27 26 26 27 27 29 30 30 29
27 28 28 29 28 28 28 28 28 28 28 28 29 29 29 28 28 28 28 28 28 28 28 28 29 29 29 29 29 29 28 28 28 28 28 27 27 28 28 29 29 29 29
28 27 28 28 28 28 27 27 28 28 29 29 29 29 30 30 29 29 29 28 29 29 30 29 29 29 29 29 29 30 29 29 29 29 28 28 28 29 29 29 29 29 29
27 27 28 28 28 27 27 27 28 29 30 30 30 30 30 30 30 30 29 29 30 31 31 31 31 30 30 30 29 29 29 29 29 30 30 30 30 30 30 30 30 30 30
27 28 28 28 28 28 28 28 29 29 30 31 31 31 30 30 30 30 30 30 30 31 31 31 31 30 30 29 29 30 31 31 31 31 31 31 30 30 30 30 30 30 30
28 28 28 29 29 29 29 29 29 29 30 30 30 30 30 30 30 29 29 30 30 30 30 30 30 31 31 30 30 30 31 31 31 31 31 31 31 31 31 31 31 31 30
29 29 29 29 29 30 30 29 29 30 30 30 30 31 31 30 30 30 30 30 30 29 29 29 30 30 31 31 31 31 31 31 31 31 31 31 31 31 31 31 31 31 30
Wind_Direction
269 266 264 263 264 264 263 267 269 270 270 269 270 269 270 271 270 272 276 280 282 282 280 278 278 278 279 284 289 290 288 287 286 285 282 280 277 275 277 276 276 278 280
268 267 266 263 263 264 263 267 269 269 268 268 269 270 270 270 270 271 273 276 279 280 281 280 278 279 282 286 287 290 291 288 288 285 284 282 280 279 277 277 280 282 283
265 265 264 264 263 263 267 271 271 269 268 269 268 268 268 270 270 270 270 274 275 277 280 282 280 281 284 286 285 288 289 289 290 285 285 283 280 279 279 280 280 281 284
265 264 263 264 265 267 270 273 273 271 268 266 266 266 267 269 269 271 271 272 274 274 280 286 285 282 284 286 286 287 288 289 290 290 287 283 280 279 281 282 281 281 282
265 263 264 265 265 270 272 272 272 272 269 267 266 268 268 267 268 269 271 272 274 276 281 284 284 284 286 286 286 285 285 286 290 290 287 286 283 281 283 284 283 282 281
266 263 261 265 266 270 272 271 269 268 268 267 266 268 268 268 268 268 271 273 276 278 279 281 283 284 286 287 287 285 283 283 286 287 285 284 286 286 287 287 287 286 287
266 262 261 263 264 269 272 269 267 266 266 266 265 263 264 267 269 268 270 274 275 277 279 280 282 285 286 287 289 289 286 284 285 285 282 282 284 287 288 288 288 288 287
267 263 264 266 265 266 268 267 265 265 266 266 264 262 264 267 269 271 270 271 273 276 281 284 284 284 285 287 288 290 289 287 285 286 284 283 283 284 286 287 287 288 290
268 264 264 265 265 264 265 265 266 267 268 270 267 265 264 264 267 270 272 272 275 277 280 283 283 284 286 289 289 289 289 287 284 284 284 285 287 288 288 289 289 290 292
268 264 264 263 264 263 263 263 264 266 268 268 267 264 262 264 266 268 270 273 275 279 283 282 281 283 287 289 289 288 288 286 283 283 284 286 288 288 289 290 291 292 292
267 266 265 265 264 263 263 265 265 266 267 266 264 263 262 264 267 270 271 274 276 279 281 281 281 284 286 289 290 289 287 285 284 284 285 286 287 288 288 288 290 292 294
266 266 265 265 265 264 262 264 264 265 266 265 264 263 264 266 269 271 271 274 278 279 279 280 281 282 283 285 287 288 287 284 285 285 285 285 286 287 288 288 289 292 295
265 265 265 265 266 265 264 264 264 265 265 264 263 264 263 265 268 271 273 274 275 278 279 279 281 283 282 283 285 286 286 284 284 284 284 284 285 287 288 289 291 293 295
264 265 265 265 265 264 263 266 264 263 263 263 263 264 265 266 268 270 272 273 273 274 276 278 281 283 283 284 284 286 286 283 284 285 285 285 285 286 288 290 291 292 294
265 266 266 266 265 264 264 264 263 262 261 262 263 265 266 267 269 269 269 271 272 273 275 277 280 282 283 283 283 284 285 285 285 285 285 285 286 286 287 288 290 291 292
266 268 267 266 266 264 263 262 262 262 261 260 263 266 267 268 268 268 267 270 271 273 274 275 278 280 281 281 282 284 285 286 285 285 286 286 286 287 288 290 292 293 292
265 266 267 267 266 265 263 262 262 263 262 262 265 267 268 268 268 269 269 270 271 273 274 276 277 278 279 280 282 284 285 285 285 286 287 287 287 287 288 290 293 293 293
264 265 266 266 266 265 264 263 263 263 263 264 266 268 269 269 269 270 271 271 271 272 274 275 276 277 278 279 281 283 284 284 285 286 286 287 288 289 291 292 293 293 293
264 264 266 265 265 265 264 264 264 264 264 264 266 267 268 270 270 270 271 271 271 272 273 275 275 276 277 277 278 280 283 285 286 286 287 287 288 290 292 293 294 294 293
264 264 265 265 265 264 264 264 264 265 265 265 266 268 269 269 270 271 271 271 270 271 272 273 274 276 277 277 278 280 282 283 284 284 285 286 287 290 291 292 293 293 293
264 264 265 266 264 264 263 262 263 265 265 266 267 268 269 269 270 271 271 271 271 272 272 272 273 274 275 277 278 280 280 281 282 283 284 285 287 288 289 290 292 292 293
265 264 265 265 264 263 263 263 264 264 266 266 267 268 269 269 270 270 271 270 270 271 272 273 274 275 275 276 277 278 279 280 281 283 283 284 285 287 289 290 290 289 290
265 265 265 264 263 263 263 264 266 266 266 267 267 268 269 270 270 270 271 271 271 272 273 274 275 276 277 278 278 279 280 280 281 281 281 283 284 286 288 288 288 289 290
266 266 266 266 265 265 265 266 268 268 269 269 269 270 269 269 269 270 270 270 271 273 274 274 274 275 275 277 278 280 280 280 280 281 281 283 284 285 286 286 287 288 289
268 269 269 268 267 266 267 268 269 269 270 270 270 270 270 269 269 269 270 271 272 273 275 275 274 275 275 276 277 279 280 281 280 281 281 282 282 283 284 286 287 287 288
269 270 271 269 268 268 268 268 268 269 269 270 270 270 270 270 269 269 270 271 273 274 275 276 276 276 276 276 277 278 280 281 280 279 280 281 282 283 284 285 287 287 287
Height
5829 5829 5829 5829 5829 5829 5830 5829 5829 5830 5829 5829 5829 5829 5829 5828 5828 5828 5827 5827 5826 5825 5825 5824 5824 5823 5822 5821 5820 5819 5818 5816 5815 5814 5812 5811 5811 5810 5809 5809 5809 5809 5808
5824 5824 5825 5825 5825 5825 5825 5825 5825 5825 5825 5825 5825 5825 5824 5824 5824 5823 5823 5823 5822 5822 5821 5821 5820 5819 5818 5818 5816 5815 5814 5812 5811 5810 5809 5807 5807 5806 5805 5805 5805 5804 5804
5820 5820 5821 5821 5821 5821 5821 5821 5821 5821 5820 5820 5820 5820 5820 5820 5819 5819 5819 5819 5818 5818 5817 5817 5816 5815 5815 5814 5813 5811 5810 5809 5807 5806 5805 5804 5803 5802 5801 5801 5800 5800 5799
5816 5816 5816 5817 5817 5817 5816 5816 5816 5816 5816 5816 5816 5816 5815 5815 5815 5815 5815 5815 5814 5814 5813 5813 5812 5811 5811 5809 5808 5807 5806 5805 5803 5802 5801 5799 5799 5798 5797 5796 5796 5795 5794
5811 5811 5812 5812 5812 5812 5812 5812 5811 5811 5811 5811 5811 5811 5811 5811 5811 5811 5811 5810 5810 5810 5809 5809 5808 5807 5806 5805 5804 5803 5801 5800 5799 5797 5796 5795 5794 5793 5793 5792 5791 5790 5789
5806 5806 5807 5807 5807 5807 5807 5807 5807 5806 5806 5806 5806 5806 5806 5806 5806 5806 5806 5806 5806 5805 5805 5804 5804 5803 5802 5800 5799 5798 5797 5796 5794 5793 5792 5791 5790 5789 5788 5787 5786 5785 5784
5801 5801 5801 5801 5802 5802 5802 5802 5802 5802 5802 5802 5802 5802 5802 5802 5802 5802 5801 5801 5801 5801 5800 5800 5799 5798 5797 5796 5794 5793 5792 5790 5790 5788 5787 5786 5785 5784 5783 5782 5781 5779 5778
5796 5796 5796 5796 5796 5797 5797 5797 5797 5797 5797 5797 5797 5797 5797 5797 5797 5797 5797 5797 5796 5796 5796 5795 5794 5793 5792 5791 5790 5788 5787 5785 5784 5783 5783 5782 5780 5779 5778 5777 5776 5774 5773
5790 5790 5790 5790 5791 5791 5791 5791 5791 5792 5792 5792 5792 5792 5792 5792 5792 5792 5792 5792 5792 5791 5791 5790 5789 5788 5787 5786 5785 5784 5782 5781 5779 5778 5777 5776 5775 5774 5773 5772 5770 5769 5768
5785 5785 5785 5785 5785 5785 5786 5786 5786 5786 5786 5787 5787 5787 5787 5787 5787 5787 5787 5787 5787 5787 5786 5785 5784 5783 5782 5781 5780 5779 5777 5776 5774 5773 5772 5771 5770 5769 5768 5766 5765 5763 5762
5779 5779 5779 5779 5780 5780 5780 5780 5781 5781 5781 5781 5781 5782 5782 5783 5782 5782 5782 5782 5782 5781 5781 5780 5779 5778 5777 5776 5775 5773 5772 5771 5769 5768 5767 5766 5765 5763 5762 5760 5759 5758 5756
5773 5774 5774 5774 5774 5774 5774 5775 5775 5775 5776 5776 5776 5776 5777 5777 5777 5777 5777 5776 5776 5776 5775 5774 5774 5773 5772 5770 5769 5768 5766 5765 5764 5763 5761 5760 5759 5757 5756 5754 5753 5751 5749
5767 5767 5767 5768 5768 5768 5768 5769 5769 5769 5770 5770 5770 5771 5771 5771 5771 5771 5771 5771 5770 5770 5769 5768 5768 5767 5766 5765 5763 5762 5760 5759 5758 5757 5755 5754 5752 5751 5750 5748 5746 5744 5742
5761 5761 5761 5761 5761 5761 5762 5762 5762 5763 5763 5764 5764 5765 5765 5765 5765 5765 5765 5764 5764 5764 5763 5762 5761 5760 5760 5758 5757 5756 5754 5753 5751 5750 5749 5747 5746 5744 5743 5741 5739 5737 5735
5754 5754 5754 5754 5754 5754 5755 5755 5755 5756 5756 5757 5758 5758 5758 5758 5758 5758 5758 5758 5758 5757 5756 5756 5755 5754 5753 5752 5751 5749 5748 5746 5744 5743 5742 5740 5739 5737 5736 5734 5732 5730 5728
5746 5746 5746 5746 5747 5747 5747 5748 5748 5749 5749 5750 5750 5751 5751 5751 5751 5751 5751 5751 5750 5750 5749 5749 5748 5747 5746 5745 5744 5742 5741 5739 5737 5736 5734 5733 5731 5730 5728 5726 5724 5722 5720
5738 5739 5739 5739 5739 5739 5739 5740 5741 5741 5741 5742 5743 5743 5743 5743 5743 5743 5743 5743 5742 5742 5742 5741 5741 5740 5739 5737 5736 5735 5733 5732 5730 5728 5727 5725 5723 5722 5720 5718 5716 5714 5711
5730 5730 5730 5730 5731 5731 5731 5732 5732 5733 5734 5734 5735 5735 5735 5735 5735 5735 5735 5734 5734 5734 5734 5733 5733 5732 5731 5729 5728 5727 5725 5724 5722 5721 5719 5717 5715 5714 5712 5710 5707 5705 5702
5720 5721 5721 5722 5722 5722 5723 5723 5724 5724 5725 5726 5726 5726 5726 5726 5726 5726 5726 5726 5726 5725 5725 5725 5724 5723 5722 5721 5719 5718 5717 5715 5714 5712 5711 5709 5707 5705 5703 5701 5699 5696 5693
5711 5712 5712 5713 5713 5714 5714 5714 5715 5716 5716 5717 5717 5718 5718 5717 5717 5717 5717 5716 5716 5716 5716 5716 5715 5714 5713 5712 5711 5709 5708 5707 5705 5704 5702 5700 5698 5696 5694 5692 5689 5687 5684
5703 5703 5703 5703 5704 5704 5705 5705 5706 5707 5707 5708 5708 5708 5708 5708 5708 5708 5707 5707 5707 5706 5706 5705 5705 5704 5703 5702 5701 5700 5699 5698 5696 5695 5693 5691 5689 5687 5685 5683 5680 5678 5675
5693 5694 5694 5694 5695 5695 5696 5696 5697 5697 5698 5698 5699 5698 5698 5698 5698 5698 5698 5698 5697 5696 5696 5695 5695 5694 5693 5692 5691 5690 5689 5688 5687 5685 5684 5682 5680 5678 5676 5674 5671 5669 5666
5684 5684 5685 5685 5685 5686 5686 5687 5687 5688 5688 5688 5688 5688 5688 5688 5688 5688 5688 5687 5687 5686 5686 5685 5684 5684 5683 5682 5681 5680 5679 5678 5676 5675 5674 5672 5670 5668 5666 5664 5662 5659 5657
5675 5675 5675 5675 5676 5676 5677 5677 5678 5678 5678 5678 5678 5678 5678 5677 5678 5678 5677 5677 5676 5676 5675 5674 5674 5673 5672 5671 5670 5670 5668 5667 5665 5664 5663 5661 5660 5658 5656 5654 5652 5650 5647
5666 5666 5666 5666 5666 5666 5667 5667 5667 5667 5667 5667 5667 5667 5667 5667 5667 5667 5667 5666 5666 5666 5665 5664 5663 5663 5662 5661 5660 5659 5658 5656 5655 5653 5652 5651 5649 5648 5646 5644 5642 5640 5637
5656 5656 5656 5656 5656 5656 5656 5656 5657 5657 5657 5656 5656 5656 5656 5656 5657 5657 5656 5656 5656 5655 5654 5654 5653 5652 5651 5650 5649 5648 5647 5645 5644 5643 5641 5640 5638 5637 5635 5634 5632 5630 5628